This demonstration page uses our WeatherBlox Daily Observations layout. Learn more.

Left ArrowRight Arrow

Hourly Observations for February 27, 2018

Temp ( °F °C ) Dew Point ( °F °C ) Humidity (%) Winds ( mph kmh ) Pressure ( in mb ) Visibility ( mi km ) Precip ( " mm )
12:15 am 00:15 Clear 32 0 32 0 100 100 W 3 6 30.39 1029 10 16.0934 0 0
12:30 am 00:30 Clear 32 0 32 0 100 100 W 3 6 30.39 1029 10 16.0934 0 0
12:55 am 00:55 Clear 32 0 32 0 100 100 W 3 6 30.39 1029 10 16.0934 0 0
1:15 am 01:15 Clear 32 0 32 0 100 100 NNW 3 6 30.39 1029 10 16.0934 0 0
1:35 am 01:35 Clear 32 0 30 -1 93 93 NW 5 7 30.42 1030 10 16.0934 0 0
1:55 am 01:55 Clear 32 0 32 0 100 100 WNW 3 6 30.42 1030 10 16.0934 0 0
2:15 am 02:15 Clear 32 0 30 -1 93 93 Calm 30.42 1030 10 16.0934 0 0
2:35 am 02:35 Clear 32 0 30 -1 93 93 Calm 30.42 1030 10 16.0934 0 0
2:55 am 02:55 Clear 32 0 30 -1 93 93 Calm 30.42 1030 10 16.0934 0 0
3:15 am 03:15 Clear 32 0 30 -1 93 93 Calm 30.42 1030 10 16.0934 0 0
3:35 am 03:35 Clear 32 0 30 -1 93 93 N 3 6 30.42 1030 10 16.0934 0 0
3:55 am 03:55 Clear 34 1 28 -2 81 81 Calm 30.42 1030 10 16.0934 0 0
4:15 am 04:15 Clear 32 0 28 -2 87 87 Calm 30.42 1030 10 16.0934 0 0
4:35 am 04:35 Clear 32 0 30 -1 93 93 Calm 30.42 1030 10 16.0934 0 0
4:55 am 04:55 Clear 32 0 28 -2 87 87 Calm 30.45 1031 10 16.0934 0 0
5:15 am 05:15 Clear 32 0 28 -2 87 87 Calm 30.42 1030 10 16.0934 0 0
5:35 am 05:35 Clear 32 0 28 -2 87 87 Calm 30.45 1031 10 16.0934 0 0
5:55 am 05:55 Clear 32 0 28 -2 87 87 Calm 30.45 1031 10 16.0934 0 0
6:15 am 06:15 Clear 32 0 28 -2 87 87 Calm 30.45 1031 10 16.0934 0 0
6:35 am 06:35 Clear 30 -1 28 -2 93 93 Calm 30.45 1031 10 16.0934 0 0
6:55 am 06:55 Sunny 30 -1 28 -2 93 93 Calm 30.45 1031 10 16.0934 0 0
7:15 am 07:15 Sunny 30 -1 30 -1 100 100 W 3 6 30.48 1032 10 16.0934 0 0
7:35 am 07:35 Sunny 30 -1 30 -1 100 100 W 5 7 30.48 1032 10 16.0934 0 0
7:55 am 07:55 Sunny 32 0 30 -1 93 93 W 3 6 30.48 1032 10 16.0934 0 0
8:15 am 08:15 Sunny 37 3 30 -1 75 75 Calm 30.48 1032 10 16.0934 0 0
8:35 am 08:35 Sunny 41 5 30 -1 66 66 Calm 30.48 1032 10 16.0934 0 0
8:55 am 08:55 Sunny 45 7 30 -1 57 57 Calm 30.5 1033 10 16.0934 0 0
9:15 am 09:15 Sunny 46 8 32 0 57 57 Calm 30.5 1033 10 16.0934 0 0
9:35 am 09:35 Sunny 48 9 30 -1 50 50 Calm 30.5 1033 10 16.0934 0 0
9:55 am 09:55 Sunny 50 10 28 -2 43 43 Calm 30.5 1033 10 16.0934 0 0
10:15 am 10:15 Sunny 52 11 28 -2 41 41 WNW 3 6 30.5 1033 10 16.0934 0 0
10:35 am 10:35 Sunny 52 11 27 -3 38 38 Calm 30.5 1033 10 16.0934 0 0
10:55 am 10:55 Sunny 52 11 27 -3 38 38 SE 3 6 30.5 1033 10 16.0934 0 0
11:15 am 11:15 Sunny 54 12 27 -3 35 35 ENE 7 11 30.5 1033 10 16.0934 0 0
11:35 am 11:35 Sunny 54 12 27 -3 35 35 Calm 30.5 1033 10 16.0934 0 0
11:55 am 11:55 Sunny 54 12 25 -4 33 33 W 5 7 30.48 1032 10 16.0934 0 0
12:15 pm 12:15 Sunny 55 13 25 -4 31 31 Calm 30.48 1032 10 16.0934 0 0
12:35 pm 12:35 Sunny 55 13 27 -3 33 33 Calm 30.48 1032 10 16.0934 0 0
12:55 pm 12:55 Sunny 55 13 27 -3 33 33 W 8 13 30.45 1031 10 16.0934 0 0
1:15 pm 13:15 Sunny 57 14 27 -3 31 31 S 3 6 30.42 1030 10 16.0934 0 0
1:35 pm 13:35 Sunny 57 14 27 -3 31 31 Calm 30.39 1029 10 16.0934 0 0
1:55 pm 13:55 Sunny 59 15 27 -3 29 29 W 7 11 30.39 1029 10 16.0934 0 0
2:15 pm 14:15 Sunny 57 14 27 -3 31 31 Calm 30.36 1028 10 16.0934 0 0
2:35 pm 14:35 Sunny 59 15 25 -4 27 27 SSW 7 11 30.36 1028 10 16.0934 0 0
2:55 pm 14:55 Sunny 57 14 25 -4 29 29 S 8 13 30.33 1027 10 16.0934 0 0
3:15 pm 15:15 Sunny 59 15 27 -3 29 29 SSE 8 13 30.33 1027 10 16.0934 0 0
3:35 pm 15:35 Sunny 59 15 27 -3 29 29 S 6 9 30.33 1027 10 16.0934 0 0
3:55 pm 15:55 Sunny 59 15 28 -2 31 31 S 8 13 30.33 1027 10 16.0934 0 0
4:15 pm 16:15 Sunny 59 15 28 -2 31 31 S 8 13 30.33 1027 10 16.0934 0 0
4:35 pm 16:35 Sunny 59 15 28 -2 31 31 SSW 8 13 30.3 1026 10 16.0934 0 0
4:55 pm 16:55 Sunny 57 14 28 -2 33 33 SSE 10 17 30.3 1026 10 16.0934 0 0
5:15 pm 17:15 Sunny 57 14 28 -2 33 33 S 8 13 30.3 1026 10 16.0934 0 0
5:35 pm 17:35 Sunny 57 14 28 -2 33 33 S 8 13 30.3 1026 10 16.0934 0 0
5:55 pm 17:55 Sunny 54 12 28 -2 38 38 S 7 11 30.33 1027 10 16.0934 0 0
6:15 pm 18:15 Clear 54 12 28 -2 38 38 S 6 9 30.33 1027 10 16.0934 0 0
6:35 pm 18:35 Clear 54 12 28 -2 38 38 S 7 11 30.33 1027 10 16.0934 0 0
6:55 pm 18:55 Clear 52 11 28 -2 41 41 S 6 9 30.33 1027 10 16.0934 0 0
7:15 pm 19:15 Clear 52 11 28 -2 41 41 S 7 11 30.3 1026 10 16.0934 0 0
7:35 pm 19:35 Clear 52 11 28 -2 41 41 S 7 11 30.3 1026 10 16.0934 0 0
7:55 pm 19:55 Clear 52 11 28 -2 41 41 S 8 13 30.3 1026 10 16.0934 0 0
8:15 pm 20:15 Clear 48 9 28 -2 46 46 S 7 11 30.3 1026 10 16.0934 0 0
8:35 pm 20:35 Clear 48 9 28 -2 46 46 S 7 11 30.3 1026 10 16.0934 0 0
8:55 pm 20:55 Clear 46 8 28 -2 50 50 S 7 11 30.3 1026 10 16.0934 0 0
9:15 pm 21:15 Clear 46 8 30 -1 53 53 S 8 13 30.3 1026 10 16.0934 0 0
9:35 pm 21:35 Clear 45 7 30 -1 57 57 S 8 13 30.27 1025 10 16.0934 0 0
9:55 pm 21:55 Clear 45 7 30 -1 57 57 S 6 9 30.27 1025 10 16.0934 0 0
10:15 pm 22:15 Clear 45 7 30 -1 57 57 S 7 11 30.27 1025 10 16.0934 0 0
10:35 pm 22:35 Clear 45 7 30 -1 57 57 S 7 11 30.27 1025 10 16.0934 0 0
10:55 pm 22:55 Clear 45 7 30 -1 57 57 S 7 11 30.27 1025 10 16.0934 0 0
11:15 pm 23:15 Clear 45 7 30 -1 57 57 S 10 17 30.24 1024 10 16.0934 0 0
11:35 pm 23:35 Clear 45 7 30 -1 57 57 S 9 15 30.24 1024 10 16.0934 0 0
11:55 pm 23:55 Clear 45 7 30 -1 57 57 S 6 9 30.24 1024 10 16.0934 0 0

Powered by AerisWeather